This demonstration page uses our WeatherBlox Daily Observations layout. Learn more.

Left ArrowRight Arrow

Hourly Observations for May 9, 2015

Temp ( °F °C ) Dew Point ( °F °C ) Humidity (%) Winds ( mph kmh ) Pressure ( in mb ) Visibility ( mi km ) Precip ( " mm )
12:15 am 00:15 Clear 64 18 59 15 83 83 N N/A 30.18 1022 10 16 N/A
12:35 am 00:35 Clear 63 17 59 15 88 88 WSW 3 6 30.18 1022 10 16 N/A
12:55 am 00:55 Clear 63 17 61 16 94 94 N N/A 30.18 1022 10 16 N/A
1:15 am 01:15 Clear 63 17 61 16 94 94 N N/A 30.18 1022 10 16 N/A
1:35 am 01:35 Clear 63 17 61 16 94 94 N N/A 30.18 1022 10 16 N/A
1:55 am 01:55 Clear 63 17 61 16 94 94 N N/A 30.18 1022 10 16 N/A
2:15 am 02:15 Clear 61 16 59 15 94 94 N N/A 30.18 1022 10 16 N/A
2:35 am 02:35 Clear 63 17 61 16 94 94 SE 5 7 30.18 1022 10 16 N/A
2:55 am 02:55 Clear 61 16 59 15 94 94 N N/A 30.18 1022 10 16 N/A
3:15 am 03:15 Clear 59 15 59 15 100 100 N N/A 30.18 1022 10 16 N/A
3:35 am 03:35 Clear 61 16 61 16 100 100 ESE 6 9 30.18 1022 10 16 N/A
3:55 am 03:55 Partly Cloudy 63 17 61 16 94 94 ESE 5 7 30.18 1022 10 16 N/A
4:15 am 04:15 Mostly Cloudy 63 17 61 16 94 94 SE 3 6 30.18 1022 10 16 N/A
4:35 am 04:35 Cloudy 63 17 63 17 100 100 SSE 3 6 30.18 1022 10 16 N/A
4:55 am 04:55 Cloudy 61 16 61 16 100 100 SSE 3 6 30.18 1022 10 16 N/A
5:15 am 05:15 Cloudy 63 17 63 17 100 100 S 3 6 30.21 1023 10 16 N/A
5:35 am 05:35 Cloudy 63 17 63 17 100 100 S 6 9 30.21 1023 10 16 N/A
5:55 am 05:55 Cloudy 64 18 64 18 100 100 SSE 5 7 30.21 1023 10 16 N/A
6:15 am 06:15 Cloudy 64 18 64 18 100 100 S 3 6 30.24 1024 10 16 N/A
6:35 am 06:35 Cloudy 64 18 64 18 100 100 N N/A 30.24 1024 7 11 N/A
6:55 am 06:55 Cloudy with Mist and Fog 63 17 63 17 100 100 SW 3 6 30.24 1024 5 8 N/A
7:15 am 07:15 Cloudy with Mist and Fog 63 17 63 17 100 100 N N/A 30.24 1024 4 6 N/A
7:35 am 07:35 Cloudy with Mist and Fog 64 18 64 18 100 100 N N/A 30.24 1024 4 6 N/A
7:55 am 07:55 Cloudy 64 18 64 18 100 100 N N/A 30.24 1024 7 11 N/A
8:15 am 08:15 Cloudy 64 18 64 18 100 100 N N/A 30.24 1024 10 16 N/A
8:35 am 08:35 Cloudy 64 18 64 18 100 100 S 3 6 30.27 1025 10 16 N/A
8:55 am 08:55 Cloudy 64 18 64 18 100 100 S 3 6 30.27 1025 10 16 N/A
9:15 am 09:15 Cloudy 64 18 64 18 100 100 N N/A 30.27 1025 10 16 N/A
9:35 am 09:35 Cloudy 66 19 64 18 94 94 N N/A 30.27 1025 10 16 N/A
9:55 am 09:55 Cloudy 68 20 64 18 88 88 N N/A 30.27 1025 10 16 N/A
10:15 am 10:15 Cloudy 68 20 64 18 88 88 N N/A 30.27 1025 10 16 N/A
10:35 am 10:35 Cloudy 68 20 64 18 88 88 S 5 7 30.27 1025 10 16 N/A
10:55 am 10:55 Cloudy 68 20 64 18 88 88 N N/A 30.27 1025 10 16 N/A
11:15 am 11:15 Cloudy 68 20 64 18 88 88 N N/A 30.27 1025 10 16 N/A
11:35 am 11:35 Cloudy 68 20 64 18 88 88 S 5 7 30.27 1025 10 16 N/A
11:55 am 11:55 Cloudy 70 21 66 19 88 88 S 5 7 30.27 1025 10 16 N/A
12:15 pm 12:15 Cloudy 72 22 66 19 83 83 S 5 7 30.27 1025 10 16 N/A
12:35 pm 12:35 Mostly Cloudy 72 22 64 18 78 78 SE 5 7 30.27 1025 10 16 N/A
12:55 pm 12:55 Mostly Cloudy 73 23 66 19 78 78 E 3 6 30.24 1024 10 16 N/A
1:15 pm 13:15 Mostly Cloudy 73 23 66 19 78 78 ESE 8 13 30.24 1024 10 16 N/A
1:35 pm 13:35 Mostly Cloudy 73 23 64 18 74 74 SE 8 13 30.24 1024 10 16 N/A
1:55 pm 13:55 Mostly Cloudy 77 25 64 18 65 65 SE 9 15 30.21 1023 10 16 N/A
2:15 pm 14:15 Partly Cloudy 79 26 64 18 61 61 SE 6 9 30.21 1023 10 16 N/A
2:35 pm 14:35 Mostly Cloudy 79 26 63 17 58 58 SE 8 13 30.21 1023 10 16 N/A
2:55 pm 14:55 Mostly Cloudy 79 26 63 17 58 58 S 15 24 30.21 1023 10 16 N/A
3:15 pm 15:15 Mostly Cloudy 79 26 63 17 58 58 SSE 14 22 30.21 1023 10 16 N/A
3:35 pm 15:35 Partly Cloudy 79 26 63 17 58 58 S 16 26 30.18 1022 10 16 N/A
3:55 pm 15:55 Partly Cloudy 79 26 63 17 58 58 S 15 24 30.18 1022 10 16 N/A
4:15 pm 16:15 Partly Cloudy 81 27 63 17 54 54 S 15 24 30.18 1022 10 16 N/A
4:35 pm 16:35 Partly Cloudy 81 27 61 16 51 51 SE 14 22 30.18 1022 10 16 N/A
4:55 pm 16:55 Sunny 81 27 61 16 51 51 S 10 17 30.18 1022 10 16 N/A
5:15 pm 17:15 Sunny 81 27 61 16 51 51 S 12 19 30.18 1022 10 16 N/A
5:35 pm 17:35 Partly Cloudy 81 27 63 17 54 54 SSW 10 17 30.18 1022 10 16 N/A
5:55 pm 17:55 Partly Cloudy 81 27 63 17 54 54 S 10 17 30.18 1022 10 16 N/A
6:15 pm 18:15 Partly Cloudy 81 27 63 17 54 54 SSE 8 13 30.18 1022 10 16 N/A
6:35 pm 18:35 Partly Cloudy 81 27 64 18 58 58 SSW 10 17 30.18 1022 10 16 N/A
6:55 pm 18:55 Sunny 79 26 64 18 61 61 S 13 20 30.18 1022 10 16 N/A
7:15 pm 19:15 Sunny 79 26 64 18 61 61 S 12 19 30.18 1022 10 16 N/A
7:35 pm 19:35 Sunny 79 26 64 18 61 61 S 14 22 30.18 1022 10 16 N/A
7:55 pm 19:55 Sunny 79 26 64 18 61 61 S 8 13 30.18 1022 10 16 N/A
8:15 pm 20:15 Clear 77 25 64 18 65 65 SSW 13 20 30.18 1022 10 16 N/A
8:35 pm 20:35 Clear 73 23 64 18 74 74 SSW 9 15 30.21 1023 10 16 N/A
8:55 pm 20:55 Clear 75 24 64 18 69 69 S 8 13 30.21 1023 10 16 N/A
9:15 pm 21:15 Clear 75 24 64 18 69 69 S 10 17 30.21 1023 10 16 N/A
9:35 pm 21:35 Clear 72 22 64 18 78 78 S 9 15 30.21 1023 10 16 N/A
9:55 pm 21:55 Clear 73 23 66 19 78 78 S 9 15 30.21 1023 10 16 N/A
10:15 pm 22:15 Clear 72 22 66 19 83 83 S 8 13 30.21 1023 10 16 N/A
10:35 pm 22:35 Clear 72 22 66 19 83 83 S 7 11 30.21 1023 10 16 N/A
10:55 pm 22:55 Clear 70 21 66 19 88 88 S 6 9 30.21 1023 10 16 N/A
11:15 pm 23:15 Clear 70 21 66 19 88 88 S 7 11 30.21 1023 10 16 N/A
11:35 pm 23:35 Clear 70 21 66 19 88 88 S 9 15 30.21 1023 10 16 N/A
11:55 pm 23:55 Clear 70 21 66 19 88 88 S 10 17 30.21 1023 10 16 N/A

Powered by AerisWeather